Location: Gwatt
(46.7204°N, 7.6223°E)
Time: 01:56:20
(UTC+00:00)

Cosmos 2227 - Pass Details

Date: 18 September 2020
Orbit: 836 x 859 km, 71.0° (Epoch: 31 October)

Event Time Altitude Azimuth Distance (km) Brightness Sun altitude
Rises 17:56:53 0° 193° (SSW) 3,418 7.4 -4.6°
Reaches altitude 10° 17:59:21 10° 190° (S) 2,484 6.7 -5.1°
Maximum altitude 18:04:58 61° 111° (ESE) 968 4.3 -6.0°
Drops below altitude 10° 18:10:36 10° 33° (NNE) 2,489 6.4 -7.0°
Sets 18:13:04 0° 30° (NNE) 3,426 7.2 -7.4°
